Location: Antoign�
(47.0844°N, 0.1131°W)
Time: 03:48:06
(UTC+00:00)

USA 306 - Pass Details

Date: 03 March 2021
Orbit: 564 x 577 km, 54.0° (Epoch: 17 April)

Event Time Altitude Azimuth Distance (km) Brightness Sun altitude
Rises 19:59:10 0° 293° (WNW) 2,773 7.9 -22.8°
Reaches altitude 10° 20:01:35 10° 302° (WNW) 1,872 6.5 -23.2°
Maximum altitude 20:05:29 34° 8° (N) 954 4.0 -23.8°
Enters shadow 20:05:36 34° 12° (NNE) 955 4.0 -23.8°
